1497690001.09,36176,16.38,73446.8,0.13,-0.11,0.01,0,*56
1497690002.28,36177,16.38,73448.5,0.13,-0.03,0.01,0,*64
1497690003.46,36178,16.38,73448.0,0.13,0.01,0.01,0,*44
1497690004.63,36179,16.38,73452.0,0.13,0.01,0.01,0,*45
1497690005.81,36180,16.38,73452.8,0.11,0.01,0.09,0,*49
1497690006.96,36181,16.38,73452.8,0.15,0.01,0.05,0,*40
1497690008.11,36182,16.38,73448.0,0.15,0.01,0.01,0,*47
1497690009.32,36183,16.38,73446.3,0.17,-0.11,-0.11,0,*44
1497690010.51,36184,16.38,73444.0,0.17,-0.33,-0.33,0,*43
1497690011.69,36185,16.38,73448.8,0.15,-0.57,-0.45,0,*43
1497690012.88,36186,16.38,73450.8,0.15,-0.53,-0.41,0,*40
1497690014.05,36187,16.38,73444.8,0.15,-0.57,-0.57,0,*42
1497690015.23,36188,16.38,73442.3,0.15,-0.57,-0.53,0,*49
1497690016.41,36189,16.38,73446.8,0.15,-0.57,-0.57,0,*4C
1497690017.58,36190,16.38,73442.3,0.15,-0.53,-0.53,0,*44
1497690018.77,36191,16.38,73444.0,0.17,-0.33,-0.29,0,*4C
1497690019.95,36192,16.38,73444.8,0.15,-0.19,-0.07,0,*79
1497690021.1,36193,16.31,73440.3,0.15,0.01,0.05,0,*43
1497690022.26,36194,16.38,73440.8,0.15,0.05,0.05,0,*40
1497690023.45,36195,16.38,73436.0,0.15,0.05,0.13,0,*76
1497690024.66,36196,16.38,73442.0,0.19,0.17,0.21,0,*4B
1497690025.86,36197,16.38,73446.3,0.19,0.17,0.17,0,*4F
1497690027.06,36198,16.38,73440.0,0.15,0.17,0.17,0,*4C
1497690028.29,36199,16.38,73436.8,0.17,0.13,0.13,0,*4F
1497690029.49,36200,16.38,73442.3,0.19,0.17,0.17,0,*42
1497690030.67,36201,16.38,73454.0,0.19,0.05,0.17,0,*70
1497690031.84,36202,16.38,73452.0,0.19,-0.03,0.05,0,*6B
1497690033.02,36203,16.38,73440.0,0.21,0.05,0.09,0,*46
1497690034.21,36204,16.38,73448.0,0.21,0.09,0.09,0,*4D
1497690035.41,36205,16.38,73446.5,0.21,0.09,0.17,0,*73
1497690036.62,36206,16.38,73446.0,0.21,-0.19,-0.19,0,*4F
1497690037.82,36207,16.38,73444.0,0.21,-0.49,-0.37,0,*47
1497690039.0,36208,16.38,73446.0,0.19,-0.41,-0.49,0,*42
1497690040.19,36209,16.38,73436.3,0.21,-0.29,-0.29,0,*40
1497690041.42,36210,16.38,73438.8,0.21,-0.27,-0.15,0,*49
1497690042.61,36211,16.38,73436.8,0.21,-0.03,0.05,0,*62
1497690043.82,36212,16.38,73440.3,0.21,0.09,0.21,0,*70
1497690045.03,36213,16.38,73432.0,0.23,0.29,0.29,0,*49
1497690046.24,36214,16.38,73428.8,0.23,0.29,0.29,0,*4E
1497690047.45,36215,16.38,73436.0,0.23,0.29,0.41,0,*41
1497690048.65,36216,16.38,73458.5,0.23,0.37,0.37,0,*4C
1497690049.86,36217,16.38,73442.3,0.23,0.41,0.37,0,*4C
1497690051.07,36218,16.38,73436.8,0.27,0.29,0.29,0,*46
1497690052.28,36219,16.38,73438.5,0.27,0.17,0.25,0,*46
1497690053.44,36220,16.38,73436.8,0.27,0.05,0.05,0,*4D
1497690054.62,36221,16.38,73442.3,0.27,-0.11,-0.19,0,*44
1497690055.79,36222,16.38,73438.5,0.27,-0.33,-0.33,0,*4F
1497690056.96,36223,16.38,73444.5,0.27,-0.33,-0.29,0,*45
1497690058.16,36224,16.38,73446.3,0.27,-0.23,-0.29,0,*43
1497690059.38,36225,16.38,73440.3,0.27,-0.23,-0.23,0,*48
1497690060.55,36226,16.38,73440.5,0.27,-0.33,-0.33,0,*4B
1497690061.74,36227,16.38,73430.5,0.27,-0.41,-0.49,0,*42
1497690062.91,36228,16.38,73428.3,0.27,-0.45,-0.49,0,*49
1497690064.09,36229,16.38,73424.8,0.23,-0.77,-0.69,0,*4F
1497690065.27,36230,16.38,73422.3,0.23,-0.73,-0.73,0,*48
1497690066.45,36231,16.38,73412.0,0.27,-0.65,-0.61,0,*49
1497690067.62,36232,16.38,73410.8,0.23,-0.49,-0.45,0,*46
1497690068.8,36233,16.38,73418.5,0.27,-0.41,-0.33,0,*4A
1497690070.02,36234,16.38,73418.5,0.23,-0.27,-0.23,0,*48
1497690071.2,36235,16.38,73426.8,0.27,-0.19,-0.19,0,*49
1497690072.38,36236,16.38,73426.0,0.23,-0.15,-0.15,0,*4E
1497690073.61,36237,16.38,73420.8,0.23,-0.23,-0.27,0,*4B
1497690074.79,36238,16.38,73396.5,0.23,-0.37,-0.37,0,*40
1497690075.97,36239,16.38,73412.3,0.23,-0.37,-0.37,0,*41
1497690077.14,36240,16.38,73404.3,0.23,-0.49,-0.49,0,*4F
1497690078.31,36241,16.38,73434.0,0.23,-0.61,-0.61,0,*4E
1497690079.49,36242,16.38,73424.0,0.23,-0.53,-0.49,0,*46
1497690080.67,36243,16.38,73424.0,0.23,-0.37,-0.33,0,*48
1497690081.84,36244,16.38,73434.3,0.23,-0.33,-0.37,0,*4F
1497690083.02,36245,16.38,73432.0,0.23,-0.37,-0.33,0,*4E
1497690084.2,36246,16.38,73426.0,0.23,-0.45,-0.37,0,*4C
1497690085.43,36247,16.38,73440.5,0.23,-0.27,-0.27,0,*48
1497690086.64,36248,16.38,73428.3,0.21,-0.29,-0.27,0,*4B
1497690087.87,36249,16.38,73432.3,0.21,-0.27,-0.19,0,*49
1497690089.05,36250,16.38,73436.3,0.27,-0.19,-0.15,0,*46
1497690090.24,36251,16.38,73428.3,0.23,-0.11,-0.11,0,*4F
1497690091.42,36252,16.38,73430.3,0.23,-0.11,-0.11,0,*4C
1497690092.6,36253,16.38,73430.3,0.27,-0.11,-0.11,0,*49
1497690093.79,36254,16.38,73434.5,0.27,-0.41,-0.33,0,*4B
1497690094.96,36255,16.38,73440.8,0.27,-0.33,-0.29,0,*44
1497690096.15,36256,16.38,73436.0,0.27,-0.29,-0.27,0,*42
1497690097.35,36257,16.38,73438.3,0.23,-0.27,-0.15,0,*48
1497690098.58,36258,16.38,73444.8,0.27,-0.23,-0.23,0,*42
1497690099.77,36259,16.38,73446.8,0.27,-0.29,-0.23,0,*49
1497690100.95,36260,16.38,73448.3,0.23,-0.33,-0.33,0,*4D
1497690102.12,36261,16.38,73446.3,0.23,-0.49,-0.49,0,*4C
1497690103.36,36262,16.38,73444.3,0.23,-1.01,-1.09,0,*47
1497690104.54,36263,16.38,73436.0,0.23,-1.25,-1.33,0,*49
1497690105.78,36264,16.38,73440.3,0.27,-1.39,-1.35,0,*41
1497690106.99,36265,16.38,73432.5,0.21,-1.55,-1.63,0,*4F
1497690108.17,36266,16.38,73434.5,0.19,-1.63,-1.63,0,*42
1497690109.43,36267,16.38,73446.0,0.17,-1.47,-1.47,0,*4D
1497690110.64,36268,16.38,73440.0,0.17,-1.21,-1.21,0,*42
1497690111.85,36269,16.38,73440.0,0.17,-1.21,-1.29,0,*4B
1497690113.08,36270,16.38,73414.5,0.17,-1.39,-1.33,0,*41
1497690114.27,36271,16.38,73426.8,0.15,-1.33,-1.33,0,*48
1497690115.47,36272,16.38,73436.0,0.17,-1.33,-1.33,0,*49
1497690116.66,36273,16.38,73436.5,0.15,-1.33,-1.33,0,*4A
1497690117.85,36274,16.38,73422.3,0.15,-1.29,-1.33,0,*46
1497690119.04,36275,16.38,73424.3,0.15,-1.21,-1.21,0,*4C
1497690120.28,36276,16.38,73406.5,0.13,-1.13,-1.21,0,*48
1497690121.49,36277,16.38,73394.8,0.13,-1.25,-1.33,0,*4F
1497690122.72,36278,16.38,73398.3,0.11,-1.21,-1.13,0,*44
1497690123.97,36279,16.38,73402.3,0.13,-0.97,-0.97,0,*46
1497690125.17,36280,16.38,73406.0,0.11,-0.77,-0.77,0,*42
1497690126.36,36281,16.38,73400.0,0.11,-0.65,-0.65,0,*43
1497690127.56,36282,16.38,73400.5,0.13,-0.65,-0.57,0,*43
1497690128.76,36283,16.38,73410.5,0.13,-0.49,-0.37,0,*4A
1497690129.97,36284,16.38,73420.0,0.13,-0.37,-0.33,0,*40
1497690131.17,36285,16.38,73434.3,0.13,-0.61,-0.49,0,*4F
1497690132.36,36286,16.38,73432.5,0.13,-0.61,-0.65,0,*42
1497690133.56,36287,16.38,73436.8,0.11,-0.73,-0.73,0,*45
1497690134.77,36288,16.38,73434.3,0.13,-0.73,-0.73,0,*48
1497690135.98,36289,16.38,73434.8,0.13,-0.73,-0.65,0,*4E
1497690137.18,36290,16.38,73438.5,0.13,-0.65,-0.57,0,*40
1497690138.38,36291,16.38,73438.8,0.13,-0.45,-0.33,0,*41
1497690139.61,36292,16.38,73440.0,0.13,-0.23,-0.11,0,*42
1497690140.79,36293,16.38,73444.3,0.13,0.01,0.01,0,*42
1497690141.99,36294,16.38,73448.8,0.17,0.05,0.13,0,*76
1497690143.2,36295,16.38,73448.5,0.15,0.13,0.13,0,*42
1497690144.41,36296,16.38,73442.3,0.19,0.17,0.21,0,*48
1497690145.61,36297,16.38,73444.3,0.19,0.17,0.17,0,*4C
1497690146.82,36298,16.38,73442.0,0.21,0.09,0.17,0,*77
1497690148.02,36299,16.38,73440.3,0.21,0.09,0.17,0,*76
1497690149.23,36300,16.38,73442.8,0.21,0.09,0.17,0,*77
1497690150.43,36301,16.38,73452.0,0.21,0.09,0.25,0,*77
1497690151.64,36302,16.38,73440.8,0.21,0.09,0.17,0,*75
1497690152.84,36303,16.38,73446.5,0.21,-0.37,-0.37,0,*4B
1497690154.04,36304,16.38,73444.0,0.21,-0.53,-0.53,0,*4C
1497690155.22,36305,16.38,73424.3,0.23,-0.53,-0.49,0,*44
1497690156.42,36306,16.38,73418.3,0.21,-0.57,-0.57,0,*4E
1497690157.62,36307,16.38,73430.8,0.21,-0.49,-0.53,0,*44
1497690158.81,36308,16.38,73436.8,0.21,-0.37,-0.29,0,*4F
1497690160.0,36309,16.38,73422.5,0.21,-0.29,-0.29,0,*41
1497690161.2,36310,16.38,73428.8,0.21,-0.49,-0.53,0,*42
1497690162.38,36311,16.38,73442.0,0.23,-0.37,-0.33,0,*4E
1497690163.55,36312,16.38,73448.8,0.23,-0.33,-0.33,0,*49
1497690164.75,36313,16.38,73450.0,0.23,-0.33,-0.27,0,*4D
1497690166.0,36314,16.38,73444.3,0.21,-0.27,-0.27,0,*4D
1497690167.2,36315,16.38,73440.8,0.23,-0.23,-0.15,0,*4B
1497690168.4,36316,16.38,73450.3,0.23,-0.23,-0.15,0,*48
1497690169.58,36317,16.38,73448.0,0.23,-0.15,-0.15,0,*4C
1497690170.77,36318,16.38,73444.3,0.23,-0.11,-0.11,0,*43
1497690171.95,36319,16.38,73440.5,0.27,-0.11,-0.11,0,*46
1497690173.15,36320,16.38,73442.5,0.27,-0.23,-0.29,0,*46
1497690174.32,36321,16.38,73444.3,0.27,-0.33,-0.33,0,*4D
1497690175.49,36322,16.38,73438.0,0.27,-0.33,-0.29,0,*45
1497690176.67,36323,16.38,73434.8,0.23,-0.49,-0.45,0,*47
1497690177.84,36324,16.38,73430.0,0.27,-0.69,-0.69,0,*48
1497690179.02,36325,16.38,73424.0,0.27,-0.81,-0.69,0,*4F
1497690180.2,36326,16.38,73430.5,0.27,-0.81,-0.81,0,*4A
1497690181.37,36327,16.38,73430.3,0.23,-0.65,-0.61,0,*4B
1497690182.55,36328,16.38,73448.0,0.23,-0.45,-0.37,0,*45
1497690183.75,36329,16.38,73450.3,0.23,-0.33,-0.23,0,*40
1497690184.97,36330,16.38,73448.5,0.27,-0.23,-0.23,0,*4D
1497690186.15,36331,16.38,73454.8,0.23,-0.37,-0.33,0,*4C
1497690187.33,36332,16.38,73444.0,0.23,-0.45,-0.49,0,*47
1497690188.5,36333,16.38,73438.8,0.23,-0.49,-0.53,0,*41
1497690189.67,36334,16.38,73422.0,0.23,-0.61,-0.53,0,*4C
1497690190.85,36335,16.38,73440.0,0.27,-0.41,-0.41,0,*48
1497690192.03,36336,16.38,73446.5,0.23,-0.45,-0.45,0,*4F
1497690193.21,36337,16.38,73446.0,0.27,-0.45,-0.41,0,*4E
1497690194.39,36338,16.38,73446.5,0.23,-0.49,-0.49,0,*41
1497690195.56,36339,16.38,73424.5,0.27,-0.49,-0.45,0,*48
1497690196.74,36340,16.38,73418.3,0.23,-0.77,-0.77,0,*4E
1497690197.91,36341,16.38,73434.0,0.23,-0.77,-0.65,0,*4C
1497690199.09,36342,16.38,73424.0,0.23,-0.53,-0.53,0,*4C
1497690200.27,36343,16.38,73432.8,0.23,-0.45,-0.37,0,*48
1497690201.44,36344,16.38,73446.3,0.23,-0.33,-0.33,0,*4A
1497690202.67,36345,16.38,73452.0,0.27,-0.23,-0.23,0,*4F
1497690203.89,36346,16.38,73446.3,0.27,-0.23,-0.23,0,*4C
1497690205.11,36347,16.38,73446.0,0.23,-0.27,-0.27,0,*49
1497690206.33,36348,16.38,73450.8,0.23,-0.23,-0.23,0,*46
1497690207.54,36349,16.38,73448.8,0.23,-0.23,-0.15,0,*42
1497690208.71,36350,16.38,73448.3,0.27,-0.11,-0.07,0,*7C
1497690209.89,36351,16.38,73444.8,0.27,-0.11,-0.07,0,*7D
1497690211.07,36352,16.38,73442.0,0.27,-0.11,-0.11,0,*49
1497690212.26,36353,16.38,73444.8,0.27,-0.19,-0.11,0,*40
1497690213.44,36354,16.38,73446.3,0.27,-0.19,-0.11,0,*47
1497690214.61,36355,16.38,73442.5,0.27,-0.33,-0.33,0,*4E
1497690215.79,36356,16.38,73444.3,0.27,-0.45,-0.45,0,*4D
1497690216.96,36357,16.38,73442.3,0.27,-0.45,-0.45,0,*4C
1497690218.14,36358,16.38,73444.5,0.27,-0.57,-0.61,0,*46
1497690219.3,36359,16.38,73450.3,0.27,-0.61,-0.61,0,*42
1497690220.47,36360,16.38,73442.0,0.27,-0.61,-0.69,0,*40
1497690221.64,36361,16.38,73440.3,0.27,-0.49,-0.57,0,*46
1497690222.81,36362,16.38,73448.0,0.23,-0.61,-0.53,0,*4F
1497690223.98,36363,16.38,73434.5,0.27,-0.49,-0.45,0,*47
1497690225.16,36364,16.38,73424.0,0.27,-0.57,-0.57,0,*4C
1497690226.33,36365,16.38,73440.3,0.27,-0.69,-0.61,0,*45
1497690227.51,36366,16.38,73436.0,0.27,-0.57,-0.57,0,*4E
1497690228.7,36367,16.38,73420.8,0.23,-0.77,-0.85,0,*46
1497690229.93,36368,16.38,73416.8,0.27,-0.97,-0.93,0,*44
1497690231.11,36369,16.38,73414.8,0.23,-1.21,-1.25,0,*41
1497690232.3,36370,16.38,73392.0,0.23,-1.25,-1.21,0,*49
1497690233.53,36371,16.38,73412.3,0.23,-0.97,-0.97,0,*4C
1497690234.7,36372,16.38,73396.8,0.23,-0.77,-0.73,0,*4B
1497690235.88,36373,16.38,73414.8,0.23,-0.65,-0.65,0,*4E
1497690237.08,36374,16.38,73426.5,0.21,-0.77,-0.69,0,*44
1497690238.3,36375,16.38,73420.3,0.21,-0.77,-0.89,0,*4B
1497690239.5,36376,16.38,73424.5,0.21,-0.77,-0.77,0,*49
1497690240.7,36377,16.38,73426.0,0.21,-0.69,-0.65,0,*44
1497690241.87,36378,16.38,73426.8,0.19,-0.69,-0.65,0,*40
1497690243.09,36379,16.38,73386.0,0.19,-0.89,-0.89,0,*4D
1497690244.33,36380,16.38,73374.0,0.19,-1.43,-1.43,0,*4B
1497690245.54,36381,16.38,73378.3,0.19,-1.43,-1.51,0,*49
1497690246.73,36382,16.38,73394.3,0.19,-1.29,-1.29,0,*49
1497690247.94,36383,16.38,73430.0,0.17,-1.17,-1.17,0,*46
1497690249.19,36384,16.38,73426.8,0.17,-1.09,-1.05,0,*4D
1497690250.38,36385,16.38,73438.8,0.15,-1.17,-1.17,0,*42
1497690251.6,36386,16.38,73438.3,0.17,-1.21,-1.21,0,*43
1497690252.83,36387,16.38,73402.8,0.17,-1.21,-1.09,0,*48
1497690254.02,36388,16.38,73410.0,0.15,-1.17,-1.17,0,*4F
1497690255.21,36389,16.38,73396.5,0.15,-1.21,-1.29,0,*46
1497690256.44,36390,16.38,73402.0,0.15,-1.09,-1.09,0,*46
1497690257.66,36391,16.38,73426.0,0.15,-0.93,-0.85,0,*40
1497690258.87,36392,16.38,73436.3,0.15,-0.93,-0.85,0,*43
1497690260.09,36393,16.38,73448.0,0.15,-0.93,-0.85,0,*42
1497690261.35,36394,16.38,73442.8,0.13,-0.97,-1.09,0,*72
1497690262.55,36395,16.38,73372.8,0.11,-1.25,-1.33,0,*40
1497690263.81,36396,16.38,73366.8,0.13,-1.43,-1.43,0,*46
1497690265.05,36397,16.38,73394.8,0.11,-1.47,-1.51,0,*42
1497690266.24,36398,16.38,73400.5,0.11,-1.59,-1.59,0,*4A
1497690267.42,36399,16.38,73386.3,0.09,-1.55,-1.55,0,*72
1497690268.65,36400,16.38,73390.0,0.09,-1.39,-1.39,0,*75
1497690269.87,36401,16.38,73396.5,0.09,-1.13,-1.13,0,*74
1497690271.09,36402,16.38,73404.8,0.09,-1.01,-1.01,0,*77
1497690272.26,36403,16.38,73406.3,0.09,-0.81,-0.81,0,*76
1497690273.47,36404,16.38,73406.0,0.07,-0.81,-0.77,0,*76
1497690274.64,36405,16.38,73410.0,0.09,-0.81,-0.81,0,*70
1497690275.83,36406,16.38,73422.0,0.09,-0.89,-0.81,0,*7B
1497690277.0,36407,16.38,73442.8,0.09,-0.81,-0.81,0,*72
1497690278.2,36408,16.38,73428.5,0.07,-0.69,-0.77,0,*7C
1497690279.39,36409,16.38,73408.0,0.07,-0.77,-0.69,0,*7D
1497690280.56,36410,16.38,73396.8,0.09,-0.69,-0.69,0,*74
1497690281.73,36411,16.38,73396.8,0.09,-0.69,-0.69,0,*75
1497690282.92,36412,16.38,73420.8,0.07,-0.69,-0.65,0,*74
1497690284.08,36413,16.38,73422.8,0.09,-0.69,-0.65,0,*7B
1497690285.25,36414,16.38,73430.8,0.09,-0.69,-0.65,0,*7C
1497690286.41,36415,16.38,73428.3,0.09,-0.77,-0.69,0,*7E
1497690287.61,36416,16.38,73432.0,0.11,-0.65,-0.65,0,*4B
1497690288.8,36417,16.38,73416.5,0.11,-0.65,-0.61,0,*4E
1497690289.98,36418,16.38,73352.0,0.07,-0.61,-0.65,0,*76
1497690291.15,36419,16.38,73376.8,0.09,-0.65,-0.65,0,*7D
1497690292.35,36420,16.38,73444.3,0.07,-0.81,-0.77,0,*70
1497690293.57,36421,16.38,73438.0,0.09,-1.01,-1.01,0,*76
1497690294.81,36422,16.38,73434.0,0.07,-0.93,-0.93,0,*7B
1497690296.02,36423,16.38,73420.5,0.09,-0.93,-0.93,0,*74
1497690297.24,36424,16.38,73396.5,0.09,-1.05,-1.13,0,*74
1497690298.47,36425,16.38,73394.3,0.09,-1.05,-1.13,0,*75
1497690299.68,36426,16.38,73402.8,0.09,-0.93,-1.05,0,*4F
1497690300.88,36427,16.38,73408.0,0.07,-0.81,-0.81,0,*7E
1497690302.08,36428,16.38,73428.0,0.07,-0.69,-0.69,0,*71
1497690303.28,36429,16.38,73428.8,0.07,-0.77,-0.77,0,*70
1497690304.53,36430,16.38,73426.5,0.07,-1.01,-1.01,0,*78
1497690305.74,36431,16.38,73428.0,0.07,-1.25,-1.25,0,*79
1497690306.95,36432,16.38,73416.8,0.07,-1.17,-1.17,0,*7A
1497690308.2,36433,16.38,73410.0,0.07,-1.05,-1.13,0,*7C
1497690309.46,36434,16.38,73400.5,0.07,-1.05,-1.01,0,*78
1497690310.72,36435,16.38,73426.5,0.07,-1.01,-1.05,0,*79
1497690311.96,36436,16.38,73414.3,0.07,-1.01,-0.93,0,*44
1497690313.19,36437,16.38,73420.5,0.05,-1.05,-1.09,0,*71
1497690314.38,36438,16.38,73404.5,0.05,-1.17,-1.21,0,*77
1497690315.55,36439,16.38,73408.8,0.05,-1.33,-1.33,0,*73
1497690316.78,36440,16.38,73418.0,0.01,-1.39,-1.47,0,*70
1497690317.96,36441,16.38,73414.3,0.01,-1.55,-1.59,0,*74
1497690319.14,36442,16.38,73418.3,0.05,-1.71,-1.71,0,*7F
1497690320.37,36443,16.38,73414.0,0.01,-1.83,-1.83,0,*7A
1497690321.58,36444,16.38,73412.5,-0.01,-2.19,-2.31,0,*5A
1497690322.81,36445,16.38,73406.0,-0.03,-2.55,-2.63,0,*56
1497690324.05,36446,16.38,73408.3,-0.05,-2.39,-2.51,0,*58
1497690325.23,36447,16.38,73406.8,-0.07,-2.39,-2.43,0,*58
1497690326.4,36448,16.38,73402.3,-0.07,-2.39,-2.43,0,*57
1497690327.61,36449,16.38,73398.3,-0.07,-2.47,-2.43,0,*5F
1497690328.83,36450,16.38,73406.3,-0.11,-2.43,-2.47,0,*60
1497690330.01,36451,16.38,73410.5,-0.11,-2.35,-2.43,0,*64
1497690331.2,36452,16.38,73414.8,-0.11,-2.19,-2.23,0,*6F
1497690332.41,36453,16.38,73428.3,-0.13,-2.23,-2.35,0,*62
1497690333.61,36454,16.38,73424.8,-0.15,-2.15,-2.23,0,*61
1497690334.79,36455,16.38,73418.3,-0.15,-2.23,-2.35,0,*62
1497690336.01,36456,16.38,73412.0,-0.15,-2.39,-2.51,0,*68
1497690337.25,36457,16.38,73396.3,-0.21,-2.51,-2.55,0,*64
1497690338.43,36458,16.38,73398.3,-0.21,-2.39,-2.43,0,*62
1497690339.61,36459,16.38,73398.0,-0.21,-2.27,-2.19,0,*63
1497690340.88,36460,16.38,73396.0,-0.23,-2.07,-2.11,0,*61
1497690342.14,36461,16.38,73394.3,-0.23,-1.95,-1.99,0,*6B
1497690343.41,36462,16.38,73410.8,-0.23,-1.99,-1.99,0,*64
1497690344.65,36463,16.38,73418.3,-0.25,-1.95,-1.87,0,*60
1497690345.9,36464,16.38,73424.3,-0.25,-1.95,-1.99,0,*68
1497690347.15,36465,16.38,73416.8,-0.23,-1.87,-1.95,0,*60
1497690348.4,36466,16.38,73414.0,-0.25,-1.95,-1.99,0,*6A
1497690349.59,36467,16.38,73412.5,-0.25,-2.23,-2.23,0,*67
1497690350.86,36468,16.38,73414.8,-0.27,-2.11,-2.11,0,*6A
1497690352.07,36469,16.38,73414.5,-0.27,-1.75,-1.75,0,*6B
1497690353.28,36470,16.38,73408.8,-0.27,-1.63,-1.63,0,*63
1497690354.5,36471,16.38,73394.3,-0.27,-1.71,-1.71,0,*62
1497690355.7,36472,16.38,73408.8,-0.29,-1.63,-1.71,0,*6C
1497690356.9,36473,16.38,73422.5,-0.27,-1.51,-1.59,0,*68
1497690358.11,36474,16.38,73452.5,-0.27,-1.59,-1.51,0,*6F
1497690359.36,36475,16.38,73426.8,-0.29,-1.47,-1.39,0,*61
1497690360.57,36476,16.38,73422.8,-0.27,-1.51,-1.51,0,*65
1497690361.79,36477,16.38,73428.0,-0.27,-1.71,-1.71,0,*64
1497690362.99,36478,16.38,73424.8,-0.29,-1.71,-1.71,0,*65
1497690364.18,36479,16.38,73416.0,-0.29,-1.75,-1.71,0,*60
1497690365.4,36480,16.38,73442.3,-0.27,-1.63,-1.63,0,*6C
1497690366.59,36481,16.38,73440.3,-0.29,-1.63,-1.63,0,*63
1497690367.77,36482,16.38,73434.3,-0.29,-1.59,-1.59,0,*60
1497690368.97,36483,16.38,73436.5,-0.29,-1.71,-1.71,0,*61
1497690370.22,36484,16.38,73440.5,-0.29,-1.83,-1.83,0,*66
1497690371.41,36485,16.38,73430.0,-0.29,-1.75,-1.75,0,*67
1497690372.6,36486,16.38,73424.5,-0.29,-1.71,-1.75,0,*60
1497690373.79,36487,16.38,73430.3,-0.29,-1.63,-1.51,0,*64
1497690374.98,36488,16.38,73426.3,-0.29,-1.51,-1.51,0,*6A
1497690376.23,36489,16.38,73438.3,-0.29,-1.39,-1.35,0,*67
1497690377.43,36490,16.38,73446.8,-0.29,-1.29,-1.29,0,*63
1497690378.64,36491,16.38,73432.0,-0.27,-1.25,-1.25,0,*6C
1497690379.9,36492,16.38,73398.3,-0.27,-1.35,-1.35,0,*6F
1497690381.12,36493,16.38,73398.0,-0.27,-1.71,-1.63,0,*6D
1497690382.31,36494,16.38,73400.0,-0.29,-1.75,-1.71,0,*63
1497690383.5,36495,16.38,73410.5,-0.29,-1.51,-1.59,0,*6E
1497690384.75,36496,16.38,73418.0,-0.29,-1.39,-1.39,0,*65
1497690386.0,36497,16.38,73416.8,-0.29,-1.39,-1.39,0,*64
1497690387.24,36498,16.38,73418.8,-0.29,-1.39,-1.47,0,*62
1497690388.45,36499,16.38,73432.8,-0.29,-1.71,-1.71,0,*6A
1497690389.66,36500,16.38,73440.3,-0.27,-1.75,-1.71,0,*61
1497690390.93,36501,16.38,73444.5,-0.31,-1.91,-1.87,0,*64
1497690392.19,36502,16.38,73428.8,-0.31,-1.91,-1.91,0,*60
1497690393.44,36503,16.38,73416.5,-0.33,-2.11,-2.07,0,*64
1497690394.71,36504,16.38,73422.5,-0.31,-1.87,-1.87,0,*66
1497690395.93,36505,16.38,73428.0,-0.31,-1.63,-1.67,0,*63
1497690397.14,36506,16.38,73434.0,-0.31,-1.51,-1.51,0,*64
1497690398.38,36507,16.38,73430.8,-0.33,-1.47,-1.47,0,*67
1497690399.63,36508,16.38,73430.5,-0.33,-1.35,-1.43,0,*69
1497690400.82,36509,16.38,73430.8,-0.33,-1.55,-1.55,0,*69
1497690402.0,36510,16.38,73432.5,-0.33,-1.59,-1.55,0,*6D
1497690403.22,36511,16.38,73432.5,-0.31,-1.33,-1.33,0,*62
1497690404.44,36512,16.38,73436.5,-0.31,-1.21,-1.17,0,*64
1497690405.7,36513,16.38,73432.5,-0.31,-1.09,-1.09,0,*60
1497690406.92,36514,16.38,73432.8,-0.31,-1.17,-1.17,0,*67
1497690408.16,36515,16.38,73432.3,-0.31,-1.09,-1.17,0,*69
1497690409.42,36516,16.38,73438.5,-0.31,-1.09,-1.09,0,*65
1497690410.65,36517,16.38,73434.8,-0.31,-1.09,-1.17,0,*6B
1497690411.91,36518,16.38,73438.0,-0.31,-1.09,-1.09,0,*6B
1497690413.1,36519,16.38,73428.5,-0.29,-1.25,-1.25,0,*63
1497690414.35,36520,16.38,73430.3,-0.29,-1.47,-1.47,0,*69
1497690415.54,36521,16.38,73450.5,-0.29,-1.51,-1.51,0,*68
1497690416.74,36522,16.38,73444.3,-0.29,-1.71,-1.71,0,*6B
1497690417.98,36523,16.38,73442.8,-0.29,-1.91,-1.91,0,*6A
1497690419.23,36524,16.38,73426.8,-0.29,-1.99,-2.11,0,*6E
1497690420.46,36525,16.38,73420.8,-0.33,-1.95,-1.95,0,*67
1497690421.71,36526,16.38,73422.0,-0.33,-1.83,-1.83,0,*64
1497690422.91,36527,16.38,73426.5,-0.33,-1.71,-1.71,0,*65
1497690424.11,36528,16.38,73422.3,-0.33,-1.67,-1.71,0,*6D
1497690425.3,36529,16.38,73422.5,-0.33,-1.79,-1.71,0,*63
1497690426.49,36530,16.38,73422.8,-0.33,-1.59,-1.71,0,*69
1497690427.7,36531,16.38,73432.3,-0.33,-1.71,-1.71,0,*62
1497690428.89,36532,16.38,73430.3,-0.37,-1.67,-1.71,0,*62
1497690430.08,36533,16.38,73430.8,-0.37,-1.71,-1.63,0,*67
1497690431.32,36534,16.38,73432.8,-0.35,-1.47,-1.55,0,*62
1497690432.57,36535,16.38,73418.3,-0.35,-1.47,-1.55,0,*63
1497690433.76,36536,16.38,73408.8,-0.33,-1.55,-1.55,0,*65
1497690434.95,36537,16.38,73400.5,-0.33,-1.79,-1.79,0,*64
1497690436.17,36538,16.38,73392.3,-0.35,-1.79,-1.71,0,*65
1497690437.44,36539,16.38,73398.8,-0.35,-1.47,-1.47,0,*6C
1497690438.62,36540,16.38,73398.8,-0.37,-1.51,-1.51,0,*60
1497690439.83,36541,16.38,73410.0,-0.35,-1.55,-1.55,0,*63
1497690441.1,36542,16.38,73416.5,-0.35,-1.43,-1.47,0,*64
1497690442.32,36543,16.38,73412.0,-0.37,-1.39,-1.29,0,*62
1497690443.54,36544,16.38,73418.0,-0.35,-1.33,-1.25,0,*61
1497690444.76,36545,16.38,73422.0,-0.35,-1.21,-1.21,0,*67
1497690445.97,36546,16.38,73420.0,-0.37,-1.35,-1.29,0,*6B
1497690447.19,36547,16.38,73424.3,-0.35,-1.25,-1.21,0,*61
1497690448.43,36548,16.38,73428.8,-0.33,-1.13,-1.09,0,*67
1497690449.67,36549,16.38,73426.5,-0.33,-1.05,-0.97,0,*57
1497690450.94,36550,16.38,73430.8,-0.31,-1.01,-1.01,0,*67
1497690452.17,36551,16.38,73442.5,-0.33,-1.09,-1.09,0,*64
1497690453.41,36552,16.38,73440.5,-0.33,-1.09,-1.09,0,*67
1497690454.65,36553,16.38,73422.8,-0.33,-1.05,-0.97,0,*5C
1497690455.92,36554,16.38,73398.5,-0.31,-1.05,-1.01,0,*67
1497690457.17,36555,16.38,73406.8,-0.31,-0.93,-0.93,0,*62
1497690458.4,36556,16.38,73418.3,-0.31,-0.81,-0.89,0,*69
1497690459.63,36557,16.38,73426.0,-0.31,-0.89,-0.77,0,*61
1497690460.82,36558,16.38,73434.5,-0.29,-0.77,-0.77,0,*66
1497690462.07,36559,16.38,73430.5,-0.27,-0.89,-0.89,0,*69
1497690463.33,36560,16.38,73422.8,-0.27,-1.01,-1.01,0,*63
1497690464.59,36561,16.38,73426.8,-0.27,-1.05,-1.01,0,*66
1497690465.84,36562,16.38,73410.0,-0.29,-1.05,-1.05,0,*6F
1497690467.09,36563,16.38,73420.5,-0.29,-1.05,-1.05,0,*6E
1497690468.33,36564,16.38,73416.3,-0.29,-1.01,-1.01,0,*69
1497690469.52,36565,16.38,73410.8,-0.29,-1.17,-1.25,0,*69
1497690470.79,36566,16.38,73420.3,-0.27,-1.39,-1.39,0,*65
1497690472.04,36567,16.38,73412.8,-0.29,-1.47,-1.47,0,*6A
1497690473.29,36568,16.38,73426.3,-0.29,-1.47,-1.39,0,*6C
1497690474.47,36569,16.38,73428.5,-0.29,-1.51,-1.51,0,*64
1497690475.72,36570,16.38,73426.8,-0.29,-1.91,-1.91,0,*6C
1497690476.9,36571,16.38,73428.8,-0.29,-2.27,-2.35,0,*6E
1497690478.18,36572,16.38,73426.5,-0.31,-2.55,-2.51,0,*63
1497690479.42,36573,16.38,73424.8,-0.33,-2.67,-2.71,0,*63
1497690480.67,36574,16.38,73428.0,-0.33,-2.71,-2.75,0,*67
1497690481.88,36575,16.38,73422.3,-0.35,-2.83,-2.95,0,*63
1497690483.08,36576,16.38,73426.3,-0.33,-2.95,-2.99,0,*6D
1497690484.29,36577,16.38,73426.3,-0.37,-2.71,-2.79,0,*6C
1497690485.56,36578,16.38,73420.8,-0.39,-2.71,-2.75,0,*61
1497690486.83,36579,16.38,73416.5,-0.43,-2.51,-2.63,0,*68
1497690488.04,36580,16.38,73414.8,-0.43,-2.31,-2.39,0,*67
1497690489.28,36581,16.38,73414.5,-0.43,-2.15,-2.07,0,*6D
1497690490.53,36582,16.38,73412.5,-0.45,-2.03,-2.07,0,*6F
1497690491.79,36583,16.38,73424.3,-0.47,-1.91,-1.91,0,*68
1497690493.01,36584,16.38,73428.3,-0.45,-1.79,-1.83,0,*68
1497690494.25,36585,16.38,73424.8,-0.45,-1.83,-1.83,0,*6C
1497690495.49,36586,16.38,73420.3,-0.45,-1.91,-1.83,0,*6C
1497690496.7,36587,16.38,73420.8,-0.47,-1.79,-1.71,0,*64
1497690497.89,36588,16.38,73426.0,-0.45,-1.59,-1.67,0,*6C
1497690499.07,36589,16.38,73428.0,-0.45,-1.59,-1.55,0,*6C
1497690500.29,36590,16.38,73430.5,-0.45,-1.55,-1.47,0,*6B
1497690501.53,36591,16.38,73434.0,-0.45,-1.47,-1.43,0,*6D
1497690502.78,36592,16.38,73436.0,-0.45,-1.47,-1.47,0,*6A
1497690504.02,36593,16.38,73432.8,-0.45,-1.47,-1.47,0,*6B
1497690505.24,36594,16.38,73412.8,-0.45,-1.47,-1.55,0,*6F
1497690506.42,36595,16.38,73428.8,-0.45,-1.55,-1.55,0,*6D